When you browse on this site, cookies collect data to enhance your experience and personalize the content and advertising you see.
Visit our Privacy Policy to learn more. By continuing to use the site, you agree to this use of cookies and data.
  • In United Kingdom
  • List of Countries
  • For 7 days
  • Water Temperature
  • Weather Map
  • Weather Widgets
  • user-avatar
    Login

    Hourly Weather Parakou

    Today, 20 August, Tuesday

    Time Temperature Precipitation Wind Pressure Humidity
    00:00 +23°C° 0 mm 1 mps 727 mmHg 98%
    01:00 +23°C° 0 mm 2 mps 727 mmHg 97%
    02:00 +23°C° 0 mm 2 mps 727 mmHg 97%
    03:00 +23°C° 0 mm 2 mps 726 mmHg 97%
    04:00 +23°C° 0.1 mm 2 mps 727 mmHg 97%
    05:00 +23°C° 0.1 mm 2 mps 727 mmHg 97%
    06:00 +23°C° 0 mm 2 mps 728 mmHg 98%
    07:00 +24°C° 0.3 mm 3 mps 728 mmHg 97%
    08:00 +24°C° 0.3 mm 3 mps 729 mmHg 96%
    09:00 +24°C° 0.3 mm 3 mps 729 mmHg 95%
    10:00 +25°C° 0.2 mm 3 mps 729 mmHg 92%
    11:00 +26°C° 0.2 mm 3 mps 729 mmHg 89%
    12:00 +27°C° 0 mm 3 mps 728 mmHg 87%
    13:00 +27°C° 0.4 mm 3 mps 728 mmHg 84%
    14:00 +28°C° 0.4 mm 3 mps 727 mmHg 81%
    15:00 +28°C° 0.4 mm 3 mps 726 mmHg 78%
    16:00 +27°C° 1 mm 2 mps 727 mmHg 83%
    17:00 +26°C° 1 mm 1 mps 727 mmHg 88%
    18:00 +25°C° 1 mm 1 mps 727 mmHg 93%
    19:00 +25°C° 0.3 mm 1 mps 728 mmHg 93%
    20:00 +25°C° 0.3 mm 1 mps 728 mmHg 94%
    21:00 +24°C° 0.3 mm 1 mps 729 mmHg 94%
    22:00 +24°C° 0.1 mm 1 mps 729 mmHg 95%
    23:00 +24°C° 0.1 mm 2 mps 729 mmHg 96%

    Tomorrow, 21 August, Wednesday

    Time Temperature Precipitation Wind Pressure Humidity
    00:00 +24°C° 0.1 mm 2 mps 729 mmHg 96%
    01:00 +24°C° 0.1 mm 2 mps 729 mmHg 97%
    02:00 +24°C° 0.1 mm 2 mps 728 mmHg 97%
    03:00 +24°C° 0.1 mm 2 mps 728 mmHg 97%
    04:00 +24°C° 0 mm 2 mps 728 mmHg 97%
    05:00 +24°C° 0 mm 2 mps 729 mmHg 97%
    06:00 +24°C° 0 mm 2 mps 729 mmHg 97%
    07:00 +24°C° 0 mm 2 mps 729 mmHg 96%
    08:00 +24°C° 0 mm 2 mps 730 mmHg 95%
    09:00 +24°C° 0 mm 2 mps 730 mmHg 94%
    10:00 +25°C° 0.3 mm 2 mps 730 mmHg 92%
    11:00 +26°C° 0.3 mm 1 mps 730 mmHg 89%
    12:00 +27°C° 0.3 mm 1 mps 729 mmHg 86%
    13:00 +27°C° 1.1 mm 1 mps 728 mmHg 86%
    14:00 +27°C° 1.1 mm 1 mps 728 mmHg 85%
    15:00 +27°C° 1.1 mm 1 mps 727 mmHg 85%
    16:00 +27°C° 0.9 mm 1 mps 727 mmHg 88%
    17:00 +26°C° 0.9 mm 1 mps 727 mmHg 92%
    18:00 +25°C° 0.9 mm 1 mps 727 mmHg 95%
    19:00 +24°C° 0 mm 1 mps 728 mmHg 95%
    20:00 +24°C° 0 mm 1 mps 728 mmHg 95%
    21:00 +24°C° 0 mm 1 mps 729 mmHg 96%
    22:00 +24°C° 0 mm 1 mps 728 mmHg 96%
    23:00 +24°C° 0 mm 2 mps 728 mmHg 96%

    Day after tomorrow, 22 August, Thursday

    Time Temperature Precipitation Wind Pressure Humidity
    00:00 +24°C° 0 mm 2 mps 728 mmHg 96%
    01:00 +24°C° 0 mm 2 mps 728 mmHg 96%
    02:00 +24°C° 0 mm 2 mps 728 mmHg 96%
    03:00 +24°C° 0 mm 2 mps 727 mmHg 97%
    04:00 +23°C° 0.1 mm 2 mps 728 mmHg 97%
    05:00 +23°C° 0.1 mm 2 mps 728 mmHg 97%
    06:00 +23°C° 0.1 mm 2 mps 728 mmHg 97%
    07:00 +24°C° 0.7 mm 2 mps 729 mmHg 96%
    08:00 +24°C° 0.7 mm 2 mps 729 mmHg 95%
    09:00 +24°C° 0.7 mm 3 mps 729 mmHg 94%
    10:00 +25°C° 0.4 mm 3 mps 729 mmHg 92%
    11:00 +26°C° 0.4 mm 3 mps 729 mmHg 89%
    12:00 +26°C° 0.4 mm 3 mps 728 mmHg 87%
    13:00 +27°C° 1.1 mm 3 mps 728 mmHg 86%
    14:00 +27°C° 1.1 mm 3 mps 727 mmHg 85%
    15:00 +28°C° 1.1 mm 4 mps 726 mmHg 84%
    16:00 +27°C° 0.9 mm 3 mps 727 mmHg 87%
    17:00 +26°C° 0.9 mm 2 mps 727 mmHg 90%
    18:00 +25°C° 0.9 mm 2 mps 727 mmHg 93%
    19:00 +25°C° 1.3 mm 2 mps 727 mmHg 93%
    20:00 +24°C° 1.3 mm 2 mps 728 mmHg 94%
    21:00 +24°C° 1.3 mm 2 mps 728 mmHg 94%
    22:00 +24°C° 0.9 mm 2 mps 728 mmHg 95%
    23:00 +24°C° 0.9 mm 2 mps 728 mmHg 95%

    23 August, Friday

    Time Temperature Precipitation Wind Pressure Humidity
    00:00 +24°C° 0.9 mm 3 mps 728 mmHg 96%
    01:00 +24°C° 0.3 mm 3 mps 728 mmHg 96%
    02:00 +22°C° 0.3 mm 3 mps 728 mmHg 97%
    03:00 +22°C° 0.3 mm 3 mps 727 mmHg 97%
    04:00 +22°C° 0.1 mm 3 mps 728 mmHg 97%
    05:00 +22°C° 0.1 mm 3 mps 728 mmHg 97%
    06:00 +23°C° 0.1 mm 2 mps 729 mmHg 97%
    07:00 +24°C° 0.1 mm 3 mps 729 mmHg 96%
    08:00 +24°C° 0.1 mm 3 mps 729 mmHg 95%
    09:00 +24°C° 0.1 mm 3 mps 730 mmHg 94%
    10:00 +25°C° 0.6 mm 3 mps 729 mmHg 90%
    11:00 +26°C° 0.6 mm 3 mps 729 mmHg 87%
    12:00 +27°C° 0.6 mm 3 mps 729 mmHg 84%
    13:00 +27°C° 2.2 mm 4 mps 728 mmHg 85%
    14:00 +27°C° 2.2 mm 4 mps 728 mmHg 87%
    15:00 +27°C° 2.2 mm 4 mps 727 mmHg 88%
    16:00 +26°C° 0.5 mm 3 mps 727 mmHg 90%
    17:00 +25°C° 0.5 mm 3 mps 727 mmHg 92%
    18:00 +24°C° 0.5 mm 2 mps 727 mmHg 94%
    19:00 +24°C° 0.3 mm 2 mps 728 mmHg 94%
    20:00 +24°C° 0.3 mm 1 mps 728 mmHg 95%
    21:00 +24°C° 0.3 mm 1 mps 729 mmHg 95%
    22:00 +24°C° 0.7 mm 2 mps 729 mmHg 95%
    23:00 +24°C° 0.7 mm 2 mps 729 mmHg 96%

    24 August, Saturday

    Time Temperature Precipitation Wind Pressure Humidity
    00:00 +23°C° 0.7 mm 2 mps 729 mmHg 96%
    01:00 +23°C° 0.7 mm 2 mps 729 mmHg 96%
    02:00 +23°C° 0.7 mm 2 mps 728 mmHg 96%
    03:00 +23°C° 0.7 mm 2 mps 728 mmHg 96%
    04:00 +23°C° 0 mm 2 mps 729 mmHg 96%
    05:00 +23°C° 0 mm 2 mps 729 mmHg 97%
    06:00 +23°C° 0 mm 2 mps 729 mmHg 97%
    07:00 +23°C° 0.1 mm 2 mps 729 mmHg 96%
    08:00 +24°C° 0.1 mm 3 mps 730 mmHg 95%
    09:00 +24°C° 0.1 mm 3 mps 730 mmHg 94%
    10:00 +24°C° 0.1 mm 3 mps 730 mmHg 93%
    11:00 +24°C° 0.1 mm 3 mps 730 mmHg 92%
    12:00 +25°C° 0.1 mm 3 mps 729 mmHg 91%
    13:00 +25°C° 0.1 mm 3 mps 729 mmHg 90%
    14:00 +25°C° 0.1 mm 3 mps 728 mmHg 89%
    15:00 +25°C° 0.1 mm 2 mps 728 mmHg 89%
    16:00 +25°C° 0 mm 2 mps 728 mmHg 91%
    17:00 +24°C° 0 mm 2 mps 728 mmHg 92%
    18:00 +24°C° 0 mm 1 mps 728 mmHg 94%
    19:00 +24°C° 0 mm 1 mps 729 mmHg 95%
    20:00 +24°C° 0 mm 2 mps 729 mmHg 95%
    21:00 +24°C° 0 mm 2 mps 730 mmHg 95%
    22:00 +24°C° 0 mm 2 mps 729 mmHg 95%
    23:00 +22°C° 0 mm 3 mps 729 mmHg 95%

    25 August, Sunday

    Time Temperature Precipitation Wind Pressure Humidity
    00:00 +22°C° 0 mm 3 mps 729 mmHg 95%
    01:00 +22°C° 0 mm 3 mps 729 mmHg 94%
    02:00 +22°C° 0 mm 3 mps 729 mmHg 93%
    03:00 +22°C° 0 mm 3 mps 728 mmHg 92%
    04:00 +22°C° 0 mm 3 mps 729 mmHg 92%
    05:00 +22°C° 0 mm 3 mps 729 mmHg 92%
    06:00 +23°C° 0 mm 2 mps 729 mmHg 92%
    07:00 +22°C° 0 mm 3 mps 730 mmHg 91%
    08:00 +24°C° 0 mm 3 mps 730 mmHg 90%
    09:00 +24°C° 0 mm 3 mps 731 mmHg 90%
    10:00 +25°C° 0.2 mm 3 mps 730 mmHg 87%
    11:00 +26°C° 0.2 mm 3 mps 730 mmHg 84%
    12:00 +27°C° 0.2 mm 3 mps 730 mmHg 81%
    13:00 +27°C° 0.4 mm 3 mps 729 mmHg 79%
    14:00 +28°C° 0.4 mm 3 mps 728 mmHg 78%
    15:00 +28°C° 0.4 mm 3 mps 728 mmHg 77%
    16:00 +27°C° 0.2 mm 2 mps 728 mmHg 81%
    17:00 +26°C° 0.2 mm 2 mps 728 mmHg 85%
    18:00 +25°C° 0.2 mm 1 mps 728 mmHg 90%
    19:00 +25°C° 0 mm 1 mps 729 mmHg 91%
    20:00 +24°C° 0 mm 1 mps 729 mmHg 93%
    21:00 +24°C° 0 mm 1 mps 729 mmHg 94%
    22:00 +24°C° 0 mm 1 mps 729 mmHg 95%
    23:00 +23°C° 0 mm 1 mps 729 mmHg 95%
    Show more